Content
SEND FEEDBACK

Daily
Averages
Monthly
Summary
United States of America

TAFT, TEXAS


Home > North America > United States > Texas
Elevation: 50 feet     Latitude: 28 06N     Longitude: 097 25W

WEATHER
 
SELECT A DAY
Number of Records: 180,017;   Date Range: 7/19/07 - 11/26/14
 
SHARE

PRINT THIS DATA

[ ← Previous Day ]
WEATHER ALMANAC - JANUARY 31, 2013
[ Next Day → ]
[ °C ]   °F
Weather ElementAverageHighLow
Temperature55.5 °F69.8 °F (1:55 pm)40.3 °F (6:15 am)
Dewpoint34.2 °F48.7 °F (11:55 pm)14.9 °F (12:55 pm)
Humidity49.4 %79 % (11:55 pm)13 % (12:55 pm)
Barometer30.27 in30.34 in (11:15 am)30.23 in (2:35 am)
Wind Speed5.9 mph17.3 mph (4:15 pm)
Wind Gust21.9 mph (4:15 pm)
Weather ElementAverage
Visibility10 mi
Wind DirectionESE (127.4 °)

Weather ElementTotal
Precipitation---
Heating Degree Days10 (Base 65)
Growing Degree Days5.1 (Base 50)
Averaged from 69 records on January 31, 2013
WEATHER CONDITIONS BREAKOUT
WIND DIRECTION BREAKOUT
WEATHER BY HOUR - JANUARY 31, 2013
[ °C ]   °F
Local TimeTemperatureDewpointHumidityBarometerVisibilityWind DirectionWind SpeedGust SpeedPrecipitationEventsConditions
12:35 AM47.8 °F26.4 °F43 %30.24 in10.0 miENE (60°)4.6 mphClear
12:55 AM48.0 °F27.1 °F44 %30.25 in10.0 miENE (60°)4.6 mphClear
1:15 AM48.2 °F27.1 °F44 %30.24 in10.0 miNE (50°)3.5 mphClear
1:35 AM46.6 °F27.0 °F46 %30.25 in10.0 miCalmClear
1:55 AM46.9 °F26.6 °F45 %30.25 in10.0 miCalmClear
2:15 AM45.3 °F26.6 °F48 %30.24 in10.0 miCalmClear
2:35 AM45.9 °F26.4 °F47 %30.23 in10.0 miCalmClear
2:55 AM45.5 °F26.4 °F47 %30.24 in10.0 miCalmClear
3:15 AM44.2 °F27.0 °F51 %30.24 in10.0 miCalmClear
3:35 AM45.9 °F27.1 °F48 %30.24 in10.0 miCalmClear
3:55 AM44.6 °F27.7 °F52 %30.24 in10.0 miSE (140°)3.5 mphClear
4:15 AM44.2 °F29.3 °F56 %30.24 in10.0 miSE (140°)3.5 mphClear
4:35 AM43.2 °F30.4 °F61 %30.24 in10.0 miCalmClear
4:55 AM43.9 °F32.4 °F64 %30.25 in10.0 miCalmClear
5:15 AM45.7 °F34.9 °F66 %30.25 in10.0 miCalmClear
5:35 AM44.2 °F34.0 °F67 %30.25 in10.0 miCalmClear
5:55 AM41.5 °F32.5 °F70 %30.25 in10.0 miSSE (160°)3.5 mphClear
6:15 AM40.3 °F32.0 °F72 %30.26 in10.0 miCalmClear
6:35 AM43.2 °F33.6 °F69 %30.27 in10.0 miSouth (190°)4.6 mphClear
6:55 AM43.3 °F33.6 °F69 %30.27 in10.0 miWNW (290°)5.8 mphClear
7:15 AM40.8 °F30.7 °F67 %30.28 in10.0 miWNW (290°)6.9 mphClear
7:35 AM40.3 °F29.5 °F65 %30.29 in10.0 miWNW (290°)5.8 mphClear
7:55 AM40.5 °F28.6 °F63 %30.29 in10.0 miNW (310°)4.6 mphClear
8:15 AM41.7 °F28.4 °F59 %30.30 in10.0 miNW (310°)3.5 mphClear
8:35 AM44.8 °F28.2 °F52 %30.31 in10.0 miWNW (300°)3.5 mphClear
8:55 AM48.6 °F30.2 °F49 %30.31 in10.0 miCalmClear
9:15 AM53.2 °F34.2 °F48 %30.32 in10.0 miCalmClear
9:35 AM56.5 °F37.8 °F50 %30.33 in10.0 miCalmClear
9:55 AM58.1 °F39.6 °F50 %30.33 in10.0 miSSW (210°)3.5 mphClear
10:15 AM59.7 °F40.6 °F49 %30.33 in10.0 miCalmClear
10:35 AM61.9 °F40.5 °F45 %30.33 in10.0 miSW (230°)4.6 mphClear
10:55 AM65.3 °F37.0 °F35 %30.33 in10.0 miSouth (190°)9.2 mphClear
11:15 AM66.9 °F33.6 °F29 %30.34 in10.0 miSouth (190°)11.5 mph17.3 mphClear
11:35 AM66.7 °F32.5 °F28 %30.34 in10.0 miSouth (180°)9.2 mph17.3 mphClear
11:55 AM67.3 °F27.3 °F22 %30.33 in10.0 miSSW (210°)8.1 mphClear
12:15 PM68.2 °F26.6 °F21 %30.32 in10.0 miSSW (200°)9.2 mphClear
12:35 PM68.5 °F19.0 °F15 %30.31 in10.0 miSSW (200°)11.5 mphClear
12:55 PM68.4 °F14.9 °F13 %30.30 in10.0 miSSW (200°)9.2 mphClear
1:15 PM68.9 °F19.4 °F15 %30.28 in10.0 miSouth (190°)8.1 mphClear
1:35 PM69.6 °F20.7 °F16 %30.27 in10.0 miSouth (190°)8.1 mphClear
1:55 PM69.8 °F19.9 °F15 %30.27 in10.0 miSSE (160°)12.7 mph16.1 mphClear
2:15 PM69.6 °F21.2 °F16 %30.26 in10.0 miSSE (150°)10.4 mphClear
2:35 PM69.3 °F20.5 °F16 %30.24 in10.0 miSSE (150°)13.8 mph20.7 mphClear
2:55 PM68.9 °F28.4 °F22 %30.24 in10.0 miSouth (170°)12.7 mph19.6 mphClear
3:15 PM68.0 °F32.9 °F27 %30.24 in10.0 miSE (140°)15.0 mph19.6 mphClear
3:35 PM67.3 °F34.7 °F30 %30.23 in10.0 miSSE (160°)13.8 mph19.6 mphClear
3:55 PM66.9 °F35.6 °F31 %30.23 in10.0 miSSE (160°)16.1 mphClear
4:15 PM66.9 °F36.0 °F32 %30.23 in10.0 miSouth (170°)17.3 mph21.9 mphClear
4:35 PM66.0 °F37.0 °F34 %30.23 in10.0 miSSE (160°)13.8 mph19.6 mphClear
4:55 PM65.5 °F37.9 °F36 %30.23 in10.0 miSE (140°)15.0 mph20.7 mphClear
5:15 PM64.9 °F38.8 °F38 %30.23 in10.0 miSE (140°)13.8 mphClear
5:35 PM64.0 °F40.1 °F41 %30.23 in10.0 miSSE (150°)11.5 mphClear
5:55 PM63.1 °F41.7 °F46 %30.23 in10.0 miSSE (150°)11.5 mphClear
6:15 PM60.6 °F43.2 °F53 %30.23 in10.0 miSE (130°)8.1 mphClear
6:35 PM58.6 °F44.8 °F60 %30.23 in10.0 miSE (130°)8.1 mphClear
7:15 PM56.1 °F45.9 °F68 %30.24 in10.0 miESE (110°)5.8 mphClear
7:35 PM56.5 °F46.6 °F69 %30.25 in10.0 miSE (130°)5.8 mphClear
7:55 PM56.3 °F46.8 °F70 %30.27 in10.0 miSE (130°)5.8 mphClear
8:15 PM55.8 °F46.4 °F71 %30.27 in10.0 miESE (120°)4.6 mphClear
8:35 PM55.8 °F46.4 °F71 %30.28 in10.0 miSE (130°)5.8 mphClear
9:15 PM55.8 °F46.6 °F71 %30.28 in10.0 miSSE (150°)4.6 mphClear
9:35 PM55.8 °F46.8 °F72 %30.29 in10.0 miSouth (170°)4.6 mphClear
9:55 PM55.8 °F46.8 °F72 %30.29 in10.0 miSSE (160°)3.5 mphClear
10:15 PM55.9 °F46.9 °F72 %30.29 in10.0 miSSE (160°)4.6 mphClear
10:35 PM56.1 °F47.3 °F72 %30.29 in10.0 miSouth (170°)4.6 mphClear
10:55 PM56.5 °F47.8 °F73 %30.30 in10.0 miSSE (150°)3.5 mphClear
11:15 PM56.8 °F47.8 °F72 %30.30 in10.0 miEast (90°)3.5 mphClear
11:35 PM55.4 °F48.2 °F77 %30.30 in10.0 miEast (80°)3.5 mphClear
11:55 PM55.0 °F48.7 °F79 %30.29 in10.0 miCalmClear
Hourly data recorded from KTFP, located miles away from Taft, Texas







STORIES FROM OUR PARTNERS